Regional Weather Roundup
Issued by NWS Green Bay, WI

Home | Current Version | Previous Version | Graphics & Text | Print | Product List | Glossary Off
Versions: 1 2 3 4 5 6 7 8 9 10 11 12 13 14 15 16 17 18 19 20 21 22 23 24 25 26 27 28 29 30 31 32 33 34 35 36 37 38 39 40 41 42 43 44 45 46 47 48 49 50

000
ASUS43 KGRB 280511
RWRGRB

NORTH-CENTRAL AND NORTHEAST WISCONSIN REGIONAL WEATHER ROUNDUP
NATIONAL WEATHER SERVICE GREEN BAY WI
1200 AM CDT THU JUL 28 2016

WIZ005-009-010>012-018-019-280600-
NORTH CENTRAL WISCONSIN

CITY           SKY/WX    TMP DP  RH WIND       PRES   REMARKS
IRONWOOD       CLOUDY    61  59  94 E5        30.01F
MANITOWISH WTR CLOUDY    63  63 100 NE3       30.03S
ARBOR VITAE    CLOUDY    64  62  92 CALM      30.02S
EAGLE RIVER    LGT RAIN  64  64 100 CALM      30.02S
LAND O LAKES   LGT RAIN  62  62  97 NE6       30.04S
RHINELANDER    LGT RAIN  65  63  93 NE6       30.01F
PHILLIPS       CLOUDY    64  63  99 NE5       30.01R
ANTIGO         CLOUDY    64  64  99 CALM      30.01S
TOMAHAWK       DRIZZLE   63  62  96 CALM      30.02R
MERRILL        LGT RAIN  63  63 100 NE3       30.00S
$$

WIZ013-073-280600-
NORTHEAST WISCONSIN

CITY           SKY/WX    TMP DP  RH WIND       PRES   REMARKS
IRON MOUNTAIN  LGT RAIN  62  58  86 CALM      30.02S
MARINETTE      RAIN     N/A N/A N/A N10       30.01F
OCONTO         CLOUDY   N/A N/A N/A NE6       30.00R
$$

WIZ017-030-035>037-045-280600-
CENTRAL WISCONSIN

CITY           SKY/WX    TMP DP  RH WIND       PRES   REMARKS
MEDFORD        RAIN      62  62 100 NE5       29.99S
WAUSAU         CLOUDY    64  62  93 SE3       29.98S
MOSINEE        CLOUDY    63  63 100 E6        30.00R
MARSHFIELD     CLOUDY    66  63  90 E6        29.97S
WISC RAPIDS    MOCLDY    66  63  90 E7        29.98S
STEVENS POINT  CLOUDY    64  63  97 E7        29.98F
WAUPACA        CLOUDY    67  67  99 N5        29.99R
SHAWANO        RAIN      68  65  90 NE10      29.99F
CLINTONVILLE   RAIN      64  63  94 E5        29.99F
WAUTOMA        RAIN      68  67  96 E9        29.97S
$$

WIZ038-039-048-051-280600-
FOX VALLEY

CITY           SKY/WX    TMP DP  RH WIND       PRES   REMARKS
NWS GREEN BAY  RAIN      68  68 100 N10       29.99R
APPLETON       CLOUDY    66  66 100 N14       29.97S
OSHKOSH        CLOUDY    73  66  78 E3        29.97R
FOND DU LAC    PTCLDY    68  64  87 NE5       29.97R
$$

WIZ022-050-052-280600-
EAST CENTRAL WISCONSIN

CITY           SKY/WX    TMP DP  RH WIND       PRES   REMARKS
EPHRAIM        LGT RAIN  66  63  90 N6        30.00R
WASHINGTON ISL NOT AVBL
STURGEON BAY   CLOUDY    70  64  81 N10       30.00S
MANITOWOC      CLOUDY    68  65  90 NW3       29.97S
SHEBOYGAN      FOG       66  64  93 W3        29.96S VSB 1/2
$$

LMZ563-521-522-541>543-280600-
LAKESHORE

STATION/POSITION TIME  TEMP    WIND        PRES    VSBY  WAVE
                       AIR SEA DIR/SP/G                  HT/PER
                 (UTC) (F)     (DEG/KT/KT) (MB)    (MI)  (FT/S)
SHEBOYGAN LKSHOR 0500   68      CALM  /  1 1014.7R
KEWAUNEE LKSHORE 0400   69     310/  2/  3 1014.5R
ALGOMA MARINA    0443          350/  6/ 10   N/A
NORTHPORT PIER   0400   70      10/  7/  9 1015.6R
N MID LAKE BUOY  0450   68 70   10/ 14/ 17 1014.7R         2/ 4
SISTER BAY LKSHO 0436   68      20/  7/  8   N/A
CHAMBERS ISLAND  0400   69     360/ 12/ 15 1015.9R
MENOMINEE LKSHOR 0400   68     330/ 10/ 12 1015.3R
$$



USA.gov is the U.S. government's official web portal to all federal, state and local government web resources and services.